It's Saturday,
December 7th, 2019
User not logged in
[Run Race Header Image][Run Race logo]
  
Race webcasting is attempted by race directors and their support staff. Please remember that conditions under which they're working may make it difficult to post timely webcast updates... your interest and patience is appreciated!
Race Information
Race Name:Kettle 100 Endurance Runs - 2018
Location:LaGrange
State:Wisconsin, United States
 button: button: Webcast Autoplay
Event Information
Name of Event:Kettle 100m solo
Distance:100 Miles
Started Date/Time:Saturday June 2nd, 2018, 6:00:46.13 am
button: Assign Numbers  
Checkpoint:Antique Lane Outbound
Distance:17.3 Miles
Gun Start Time:Saturday June 2nd, 2018 6:00:46.13 am
Calculate Chip Start Time:< not set >
Y or N... Calculate splits based upon participant chip start time?
Allow Early Chip Start Time:< not set >
Y or N... Allow participants a chip start time prior to gun start?
Pos Race
Number
NameAgeSexTimePace 
124Kevin Cannaday39M2:18:18.87:59.7Sat Jun 2nd, 2018 8:19:04 am
2168bradley revenis32M2:18:19.77:59.8Sat Jun 2nd, 2018 8:19:05 am
366David Hansen32M2:19:02.68:02.2Sat Jun 2nd, 2018 8:19:48 am
4170Michael Robbert42M2:22:19.08:13.6Sat Jun 2nd, 2018 8:23:05 am
5102Nicholas Kopp26M2:22:37.58:14.7Sat Jun 2nd, 2018 8:23:23 am
6206Luigi Terzini44M2:28:42.98:35.8Sat Jun 2nd, 2018 8:29:29 am
7193Henry Southgate37M2:33:35.38:52.7Sat Jun 2nd, 2018 8:34:21 am
8128Christopher Mahoney35M2:35:36.18:59.7Sat Jun 2nd, 2018 8:36:22 am
981Kelly Hutchins47M2:38:44.99:10.6Sat Jun 2nd, 2018 8:39:31 am
1038David Darby52M2:40:48.79:17.7Sat Jun 2nd, 2018 8:41:34 am
11152Dan Pautz32M2:41:02.59:18.5Sat Jun 2nd, 2018 8:41:48 am
1293Wil Kidnew30M2:41:03.59:18.6Sat Jun 2nd, 2018 8:41:49 am
1364Kent Green31M2:41:06.49:18.7Sat Jun 2nd, 2018 8:41:52 am
14140Christine Murphy31F2:44:04.79:29.1Sat Jun 2nd, 2018 8:44:50 am
15181Adam Schwartz-Lowe45M2:44:26.39:30.3Sat Jun 2nd, 2018 8:45:12 am
16169Kevin Riessland42M2:47:41.89:41.6Sat Jun 2nd, 2018 8:48:27 am
1757austin frion35M2:47:42.79:41.7Sat Jun 2nd, 2018 8:48:28 am
18196Jennifer St.Amand43F2:48:18.69:43.7Sat Jun 2nd, 2018 8:49:04 am
1994justin kirk42M2:48:19.49:43.8Sat Jun 2nd, 2018 8:49:05 am
2027Clint Cherepa39M2:48:22.89:44.0Sat Jun 2nd, 2018 8:49:08 am
2195Ty Kleiner46M2:48:39.89:45.0Sat Jun 2nd, 2018 8:49:25 am
2242Jeffrey DeVries39M2:48:49.89:45.5Sat Jun 2nd, 2018 8:49:35 am
23259Jason Wesolowski32M2:50:44.49:52.2Sat Jun 2nd, 2018 8:51:30 am
24215Thomas Wetter54M2:50:45.89:52.2Sat Jun 2nd, 2018 8:51:31 am
25249ryan Norton44M2:50:46.59:52.3Sat Jun 2nd, 2018 8:51:32 am
26214Annie Weiss33F2:50:46.99:52.3Sat Jun 2nd, 2018 8:51:33 am
2735David Curtin43M2:50:48.79:52.4Sat Jun 2nd, 2018 8:51:34 am
28185Even Semrud29M2:51:16.99:54.0Sat Jun 2nd, 2018 8:52:03 am
2949David Eckburg46M2:52:18.89:57.6Sat Jun 2nd, 2018 8:53:04 am
3028Anthony Ciske40M2:54:06.610:03.9Sat Jun 2nd, 2018 8:54:52 am
31262Richard Abbott52M2:56:14.310:11.2Sat Jun 2nd, 2018 8:57:00 am
32186Geoff Sheppard51M2:56:27.610:12.0Sat Jun 2nd, 2018 8:57:13 am
3326Vincent Charbonneau47M2:56:28.710:12.1Sat Jun 2nd, 2018 8:57:14 am
3474Lucas Henson33M2:56:29.210:12.1Sat Jun 2nd, 2018 8:57:15 am
35165Erik Raivo34M2:56:30.010:12.1Sat Jun 2nd, 2018 8:57:16 am
36161Lucas Prasch42M2:56:51.010:13.4Sat Jun 2nd, 2018 8:57:37 am
3751Martin Ertz33M2:57:15.610:14.8Sat Jun 2nd, 2018 8:58:01 am
38127James Luebke35M2:57:26.610:15.4Sat Jun 2nd, 2018 8:58:12 am
39230Curt brey38M2:57:45.310:16.5Sat Jun 2nd, 2018 8:58:31 am
40176Steven Schmid47M2:57:47.810:16.6Sat Jun 2nd, 2018 8:58:33 am
411Timothy Adamski29M2:58:21.310:18.6Sat Jun 2nd, 2018 8:59:07 am
42103Michael Krattley54M3:00:08.910:24.8Sat Jun 2nd, 2018 9:00:55 am
43218Jack Wiley45M3:00:43.810:26.8Sat Jun 2nd, 2018 9:01:29 am
44131Stacey Marion29F3:00:44.910:26.9Sat Jun 2nd, 2018 9:01:31 am
45254Turner Smith27M3:01:33.510:29.7Sat Jun 2nd, 2018 9:02:19 am
4623Bryan Campbell45M3:01:53.410:30.8Sat Jun 2nd, 2018 9:02:39 am
47239Jeremy Harrison40M3:01:59.410:31.2Sat Jun 2nd, 2018 9:02:45 am
4863Matt Granstrom39M3:02:30.010:32.9Sat Jun 2nd, 2018 9:03:16 am
49132Craig Mason42M3:02:31.010:33.0Sat Jun 2nd, 2018 9:03:17 am
50146Brendan O'Ryan38M3:04:49.010:41.0Sat Jun 2nd, 2018 9:05:35 am
51120David Lenahan45M3:05:28.210:43.2Sat Jun 2nd, 2018 9:06:14 am
52135Wesley Meier33M3:05:29.010:43.3Sat Jun 2nd, 2018 9:06:15 am
5321Kent Buhler52M3:05:37.710:43.8Sat Jun 2nd, 2018 9:06:23 am
5480Ellen Humberston25F3:05:49.510:44.5Sat Jun 2nd, 2018 9:06:35 am
55229brad birkel40M3:05:55.310:44.8Sat Jun 2nd, 2018 9:06:41 am
5611Brad Baumgartner48M3:05:57.110:44.9Sat Jun 2nd, 2018 9:06:43 am
57182Jared Scray39M3:05:58.910:45.0Sat Jun 2nd, 2018 9:06:45 am
58246Matt McCarty38M3:06:24.110:46.5Sat Jun 2nd, 2018 9:07:10 am
5932Brian Corgard36M3:06:26.210:46.6Sat Jun 2nd, 2018 9:07:12 am
6039jacob daul37M3:06:57.410:48.4Sat Jun 2nd, 2018 9:07:43 am
6118JP Bordeleau43M3:07:12.010:49.2Sat Jun 2nd, 2018 9:07:58 am
62228Adam Benkers43M3:07:54.510:51.7Sat Jun 2nd, 2018 9:08:40 am
63231Todd Brown49M3:07:56.510:51.8Sat Jun 2nd, 2018 9:08:42 am
64153Brian Pfister45M3:08:09.310:52.6Sat Jun 2nd, 2018 9:08:55 am
658Matt Bartz43M3:08:42.910:54.5Sat Jun 2nd, 2018 9:09:29 am
66255Samuel Stelsel33M3:08:43.810:54.6Sat Jun 2nd, 2018 9:09:29 am
6725Robert Carter46M3:08:44.310:54.6Sat Jun 2nd, 2018 9:09:30 am
68210Oliver Truog45M3:08:45.910:54.7Sat Jun 2nd, 2018 9:09:32 am
69235David Dobrindt47M3:08:46.510:54.7Sat Jun 2nd, 2018 9:09:32 am
705Michael Asmus37M3:08:47.210:54.8Sat Jun 2nd, 2018 9:09:33 am
71223Nate Ziemski40M3:08:49.010:54.9Sat Jun 2nd, 2018 9:09:35 am
72200steven stricker54M3:08:54.610:55.2Sat Jun 2nd, 2018 9:09:40 am
7362Nicolas Gramstad34M3:09:01.910:55.6Sat Jun 2nd, 2018 9:09:48 am
74177Jordan Schmidt23M3:09:17.510:56.5Sat Jun 2nd, 2018 9:10:03 am
7556Jonathon Foster27M3:10:01.910:59.1Sat Jun 2nd, 2018 9:10:48 am
7643Stacy Dittmer40F3:11:34.611:04.4Sat Jun 2nd, 2018 9:12:20 am
77162Meghan Prohaska29F3:11:35.511:04.5Sat Jun 2nd, 2018 9:12:21 am
7822Rachel Burke33F3:13:41.411:11.8Sat Jun 2nd, 2018 9:14:27 am
7972Justin Heller36M3:13:58.111:12.7Sat Jun 2nd, 2018 9:14:44 am
80187Monica Showers38F3:14:19.211:13.9Sat Jun 2nd, 2018 9:15:05 am
81240Benjamin Iles31M3:14:50.811:15.8Sat Jun 2nd, 2018 9:15:36 am
82175Joe Schafer44M3:16:35.011:21.8Sat Jun 2nd, 2018 9:17:21 am
83197Joe Starr48M3:16:47.911:22.5Sat Jun 2nd, 2018 9:17:34 am
84166Marty Reed47M3:17:11.811:23.9Sat Jun 2nd, 2018 9:17:57 am
8531Joel Coon41M3:17:24.211:24.6Sat Jun 2nd, 2018 9:18:10 am
86105Predrag Krkic63M3:17:51.511:26.2Sat Jun 2nd, 2018 9:18:37 am
87211Raphael Villavicencio51M3:18:16.211:27.6Sat Jun 2nd, 2018 9:19:02 am
8820Jason Brozek38M3:18:23.111:28.0Sat Jun 2nd, 2018 9:19:09 am
8933Jamie Crouse38F3:19:26.611:31.7Sat Jun 2nd, 2018 9:20:12 am
9048Craig Duhn42M3:19:51.211:33.1Sat Jun 2nd, 2018 9:20:37 am
91114Josh Larsen44M3:20:19.711:34.8Sat Jun 2nd, 2018 9:21:05 am
92245Jeremy Knaus44M3:20:32.911:35.5Sat Jun 2nd, 2018 9:21:19 am
9340Christopher Deck37M3:21:04.511:37.4Sat Jun 2nd, 2018 9:21:50 am
9450Mike Elsbury34M3:21:35.211:39.1Sat Jun 2nd, 2018 9:22:21 am
9546Jim Doyle48M3:21:46.911:39.8Sat Jun 2nd, 2018 9:22:32 am
96217BJ Wiedman46M3:21:57.711:40.4Sat Jun 2nd, 2018 9:22:43 am
97219David Witko60M3:22:42.511:43.0Sat Jun 2nd, 2018 9:23:28 am
98256Johnnie Stevens29M3:23:13.111:44.8Sat Jun 2nd, 2018 9:23:59 am
99237Douglas Franklin37M3:23:37.011:46.2Sat Jun 2nd, 2018 9:24:23 am
100189Dan Sievert27M3:23:37.811:46.2Sat Jun 2nd, 2018 9:24:23 am
101232Kevin Clark27M3:23:43.711:46.6Sat Jun 2nd, 2018 9:24:29 am
102183David Secord32M3:25:11.511:51.6Sat Jun 2nd, 2018 9:25:57 am
10314Adam Bittner44M3:25:13.111:51.7Sat Jun 2nd, 2018 9:25:59 am
104154Josh Phillips37M3:26:52.311:57.5Sat Jun 2nd, 2018 9:27:38 am
10598Jenna Koenigshofer36F3:27:14.111:58.7Sat Jun 2nd, 2018 9:28:00 am
10655Kelly Flynn42F3:27:28.711:59.6Sat Jun 2nd, 2018 9:28:14 am
107202dewaynne tackett55M3:27:43.212:00.4Sat Jun 2nd, 2018 9:28:29 am
108109Brian Kutz31M3:27:46.012:00.6Sat Jun 2nd, 2018 9:28:32 am
109164Sriram Raghavulu48M3:28:44.612:04.0Sat Jun 2nd, 2018 9:29:30 am
110134Ian McMeeking22M3:28:53.412:04.5Sat Jun 2nd, 2018 9:29:39 am
11191Brandon Karl42M3:29:16.012:05.8Sat Jun 2nd, 2018 9:30:02 am
112205John W. Taylor56M3:30:30.012:10.1Sat Jun 2nd, 2018 9:31:16 am
113198Cory Stipp41M3:30:33.612:10.3Sat Jun 2nd, 2018 9:31:19 am
114260Chad Wooderson43M3:30:34.812:10.3Sat Jun 2nd, 2018 9:31:20 am
11599Lisa Kohoutek34F3:30:51.812:11.3Sat Jun 2nd, 2018 9:31:37 am
116149Greg Opgenorth37M3:31:06.012:12.1Sat Jun 2nd, 2018 9:31:52 am
11759Emily Goodwin31F3:31:07.512:12.2Sat Jun 2nd, 2018 9:31:53 am
118121Lori Leonard56F3:31:08.212:12.3Sat Jun 2nd, 2018 9:31:54 am
119209Barry Thrune42M3:33:19.112:19.8Sat Jun 2nd, 2018 9:34:05 am
120216Andrew Wetterer35M3:33:34.012:20.7Sat Jun 2nd, 2018 9:34:20 am
121100Irene Kok47F3:34:26.812:23.7Sat Jun 2nd, 2018 9:35:12 am
122144kurt neumann43M3:34:30.212:23.9Sat Jun 2nd, 2018 9:35:16 am
123158Richard Plezia59M3:34:45.312:24.8Sat Jun 2nd, 2018 9:35:31 am
124236Darin Dunham49M3:35:09.412:26.2Sat Jun 2nd, 2018 9:35:55 am
12576Richard ‘Benny’ Hickok45M3:35:11.212:26.3Sat Jun 2nd, 2018 9:35:57 am
12679Justin Hudalla41M3:35:13.112:26.4Sat Jun 2nd, 2018 9:35:59 am
12716Brauny Bogantes43M3:35:15.412:26.6Sat Jun 2nd, 2018 9:36:01 am
128191Michael Smith36M3:35:16.412:26.6Sat Jun 2nd, 2018 9:36:02 am
129251Daniel Robinson44M3:35:26.212:27.2Sat Jun 2nd, 2018 9:36:12 am
13036Katie Daman37F3:36:20.912:30.3Sat Jun 2nd, 2018 9:37:07 am
131241Rachel Ingle38F3:37:08.612:33.1Sat Jun 2nd, 2018 9:37:54 am
132111John Lai44M3:38:39.612:38.4Sat Jun 2nd, 2018 9:39:25 am
133167Gregory Renden40M3:38:50.012:39.0Sat Jun 2nd, 2018 9:39:36 am
134119Jim Lemke57M3:39:09.912:40.1Sat Jun 2nd, 2018 9:39:56 am
135107Dan Kummer43M3:39:11.012:40.2Sat Jun 2nd, 2018 9:39:57 am
136257Philippe Thenot45M3:39:11.812:40.2Sat Jun 2nd, 2018 9:39:57 am
137242Scott Jacaway60M3:39:17.912:40.6Sat Jun 2nd, 2018 9:40:03 am
1383Michael Anderson39M3:39:23.912:40.9Sat Jun 2nd, 2018 9:40:10 am
139163John Psuik50M3:39:34.212:41.5Sat Jun 2nd, 2018 9:40:20 am
140190Tony Silvestri47M3:39:56.412:42.8Sat Jun 2nd, 2018 9:40:42 am
141199Stephen Strauss63M3:39:58.512:42.9Sat Jun 2nd, 2018 9:40:44 am
14270Shannon Haus47M3:40:12.812:43.7Sat Jun 2nd, 2018 9:40:58 am
143250Parker Rios51M3:40:47.012:45.7Sat Jun 2nd, 2018 9:41:33 am
14487ERICK KAISER45M3:41:27.312:48.1Sat Jun 2nd, 2018 9:42:13 am
145151Jason Patera42M3:41:36.812:48.6Sat Jun 2nd, 2018 9:42:22 am
146194Rick Sperko47M3:41:44.712:49.1Sat Jun 2nd, 2018 9:42:30 am
147145Steven Nguyen28M3:41:46.412:49.2Sat Jun 2nd, 2018 9:42:32 am
14867Nick Hansen40M3:41:57.912:49.8Sat Jun 2nd, 2018 9:42:44 am
14961Brad Gorski38M3:42:30.112:51.7Sat Jun 2nd, 2018 9:43:16 am
150172Tom Samuel46M3:42:32.712:51.8Sat Jun 2nd, 2018 9:43:18 am
15115Thomas Blanton27M3:42:44.912:52.5Sat Jun 2nd, 2018 9:43:31 am
152148William Olson29M3:42:58.112:53.3Sat Jun 2nd, 2018 9:43:44 am
153155Vincent Pilarski31M3:44:03.112:57.1Sat Jun 2nd, 2018 9:44:49 am
15465Andrew Hahn34M3:44:15.812:57.8Sat Jun 2nd, 2018 9:45:01 am
15596Mike Klimkosky54M3:44:25.812:58.4Sat Jun 2nd, 2018 9:45:11 am
156115Jeff Laughead41M3:44:46.512:59.6Sat Jun 2nd, 2018 9:45:32 am
1577Angela Barbera57F3:44:49.912:59.8Sat Jun 2nd, 2018 9:45:36 am
15869Greg Hartsfield43M3:45:06.913:00.7Sat Jun 2nd, 2018 9:45:53 am
1592Jay Anderson45M3:45:11.713:01.0Sat Jun 2nd, 2018 9:45:57 am
160243Adele Jordan35F3:45:25.813:01.8Sat Jun 2nd, 2018 9:46:11 am
161227Sarah Bailey46F3:45:28.413:02.0Sat Jun 2nd, 2018 9:46:14 am
162118John Leighton57M3:45:32.313:02.2Sat Jun 2nd, 2018 9:46:18 am
163226Jim Arnold53M3:46:18.013:04.9Sat Jun 2nd, 2018 9:47:04 am
16475Daniel Hibbard47M3:46:47.213:06.5Sat Jun 2nd, 2018 9:47:33 am
165248QuynhAnh Nguyen39F3:46:49.613:06.7Sat Jun 2nd, 2018 9:47:35 am
166247Jason Morris41M3:46:50.313:06.7Sat Jun 2nd, 2018 9:47:36 am
16768Tim Hanson46M3:46:54.813:07.0Sat Jun 2nd, 2018 9:47:40 am
168106Jason Kumlien48M3:46:56.113:07.1Sat Jun 2nd, 2018 9:47:42 am
169129Dan Mahr37M3:46:57.613:07.1Sat Jun 2nd, 2018 9:47:43 am
170179Ann Scholl48F3:47:35.013:09.3Sat Jun 2nd, 2018 9:48:21 am
171224Tammy Zyduck53F3:47:36.513:09.4Sat Jun 2nd, 2018 9:48:22 am
17213Drew Bennett54M3:47:37.613:09.5Sat Jun 2nd, 2018 9:48:23 am
173178Trudi Schoening39F3:47:49.913:10.2Sat Jun 2nd, 2018 9:48:36 am
17454Jeremy Fischer41M3:48:07.313:11.2Sat Jun 2nd, 2018 9:48:53 am
175208Brian Thrasher55M3:48:08.413:11.2Sat Jun 2nd, 2018 9:48:54 am
176201spencer swearingen40M3:48:39.213:13.0Sat Jun 2nd, 2018 9:49:25 am
177207Anthony Thompson27M3:48:43.613:13.3Sat Jun 2nd, 2018 9:49:29 am
178261Jim Ivan44M3:48:48.613:13.6Sat Jun 2nd, 2018 9:49:34 am
179159Meredith Poczkalski42F3:48:54.313:13.9Sat Jun 2nd, 2018 9:49:40 am
180244Stormy Kies50M3:48:56.813:14.0Sat Jun 2nd, 2018 9:49:42 am
181113Brian Landstrom66M3:49:59.013:17.6Sat Jun 2nd, 2018 9:50:45 am
182171Diane Romero-Lopez47F3:50:00.113:17.7Sat Jun 2nd, 2018 9:50:46 am
18373Tammy Hellings37F3:52:02.213:24.7Sat Jun 2nd, 2018 9:52:48 am
18429Katerina Claiborne45F3:52:04.613:24.9Sat Jun 2nd, 2018 9:52:50 am
185126Seth Lucas36M3:52:06.613:25.0Sat Jun 2nd, 2018 9:52:52 am
186213Ken Weiblen45M3:52:08.013:25.1Sat Jun 2nd, 2018 9:52:54 am
187141Andrew Neddo33M3:52:51.513:27.6Sat Jun 2nd, 2018 9:53:37 am
188258Edna Vazquez Lung36F3:53:27.613:29.7Sat Jun 2nd, 2018 9:54:13 am
18947Lisa Dretske32F3:53:53.913:31.2Sat Jun 2nd, 2018 9:54:40 am
19053Bill Fairfield62M3:54:05.013:31.8Sat Jun 2nd, 2018 9:54:51 am
191136Annette Mensonides47F3:54:39.613:33.9Sat Jun 2nd, 2018 9:55:25 am
19289sarah kapitz42F3:55:20.513:36.2Sat Jun 2nd, 2018 9:56:06 am
193138RJ Miller59M3:55:46.413:37.7Sat Jun 2nd, 2018 9:56:32 am
19460Patrick Gorman59M3:56:03.813:38.7Sat Jun 2nd, 2018 9:56:49 am
195130Jennifer Majewski34F3:57:30.513:43.7Sat Jun 2nd, 2018 9:58:16 am
196173Andrew Sandor32M3:57:35.113:44.0Sat Jun 2nd, 2018 9:58:21 am
197184Jess Sedivy Gunderson39F3:57:48.613:44.8Sat Jun 2nd, 2018 9:58:34 am
198212Erica Wagner31F3:58:19.413:46.6Sat Jun 2nd, 2018 9:59:05 am
199220Karen Wray53F3:58:53.513:48.5Sat Jun 2nd, 2018 9:59:39 am
20084Jennifer Jilek40F3:59:13.913:49.7Sat Jun 2nd, 2018 9:59:59 am
20117Matthew Boland34M3:59:20.813:50.1Sat Jun 2nd, 2018 10:00:06 am
20234Bill Curry38M4:01:21.613:57.1Sat Jun 2nd, 2018 10:02:07 am
203252Arturo Rodriguez41M4:02:48.714:02.1Sat Jun 2nd, 2018 10:03:34 am
204117Heidi Lehrke52F4:03:19.714:03.9Sat Jun 2nd, 2018 10:04:05 am
20530jennell colwell39F4:08:37.014:22.3Sat Jun 2nd, 2018 10:09:23 am
206160Joshua Powers38M4:08:40.014:22.4Sat Jun 2nd, 2018 10:09:26 am
207108Scott Kummer46M4:08:42.114:22.6Sat Jun 2nd, 2018 10:09:28 am
20878Allan Holtz68M4:10:14.214:27.9Sat Jun 2nd, 2018 10:11:00 am
209204Tamara Tanner28F4:10:17.914:28.1Sat Jun 2nd, 2018 10:11:04 am
2109John Bast IV42M4:10:20.114:28.2Sat Jun 2nd, 2018 10:11:06 am
211157Jeremy Platson43M4:12:06.514:34.4Sat Jun 2nd, 2018 10:12:52 am
212192Brian Smock51M4:12:51.414:37.0Sat Jun 2nd, 2018 10:13:37 am
21319Jonathan Brinkley42M4:13:24.014:38.8Sat Jun 2nd, 2018 10:14:10 am
21410Dean Bates43M4:14:46.814:43.6Sat Jun 2nd, 2018 10:15:32 am
215101tatsuya konoshita46M4:17:08.014:51.8Sat Jun 2nd, 2018 10:17:54 am
216150Charlie Ortiz38M4:17:59.514:54.8Sat Jun 2nd, 2018 10:18:45 am
217104Janel Kraus40F4:23:11.515:12.8Sat Jun 2nd, 2018 10:23:57 am
21852Jim Fair III40M4:23:42.815:14.6Sat Jun 2nd, 2018 10:24:28 am
219124joseph lovett51M4:23:56.215:15.4Sat Jun 2nd, 2018 10:24:42 am
220125Sara Lovett49F4:23:59.015:15.6Sat Jun 2nd, 2018 10:24:45 am
221133Jeffrey Maxfield62M4:24:16.815:16.6Sat Jun 2nd, 2018 10:25:02 am
22290Lisa Karandanis55F4:25:35.115:21.1Sat Jun 2nd, 2018 10:26:21 am
223112Traci Lambert-Cwerenz57F4:28:47.715:32.2Sat Jun 2nd, 2018 10:29:33 am
22471mike heider58M4:34:58.615:53.7Sat Jun 2nd, 2018 10:35:44 am
225142Megan Nelson32F4:35:23.815:55.1Sat Jun 2nd, 2018 10:36:09 am
226143Todd Nelson41M4:35:25.115:55.2Sat Jun 2nd, 2018 10:36:11 am
227156Jill Plamondon45F4:42:38.816:20.3Sat Jun 2nd, 2018 10:43:24 am
22892Evie Kellogg38F4:42:40.216:20.4Sat Jun 2nd, 2018 10:43:26 am
22988Walter Kapellen40M4:47:06.916:35.8Sat Jun 2nd, 2018 10:47:53 am
2306Nate Bailey41M4:48:41.616:41.2Sat Jun 2nd, 2018 10:49:27 am

Event Information
Name of Event:Kettle 100k solo
Distance:100 Kilometers
Started Date/Time:Saturday June 2nd, 2018, 6:00:46.13 am
button: Assign Numbers 

Event Information
Name of Event:Kettle 100 relay
Distance:100 Miles
Started Date/Time:Saturday June 2nd, 2018, 6:00:46.13 am
button: Assign Numbers 

Event Information
Name of Event:Kettle 50 km solo
Distance:50 Kilometers
Started Date/Time:Saturday June 2nd, 2018, 1:00:47.10 pm
button: Assign Numbers 

Event Information
Name of Event:Kettle 38 night fun run
Distance:38 Miles
Started Date/Time:Saturday June 2nd, 2018, 6:00:00.00 pm
button: Assign Numbers 
©2004-2019 : All rights reserved
Terms and Conditions